Time,TemperatureF,DewpointF,PressureIn,WindDirection,WindDirectionDegrees,WindSpeedMPH,WindSpeedGustMPH,Humidity,HourlyPrecipIn,Conditions,Clouds,dailyrainin,SoftwareType,DateUTC
2013-08-27 00:01:00,66.6,57.7,29.76,SSW,192,0.0,0.0,73,0.00,,---,0.00,VWS V14.01,2013-08-27 07:01:00,
2013-08-27 00:11:00,66.4,57.9,29.76,SSW,192,0.0,0.0,74,0.00,,---,0.00,VWS V14.01,2013-08-27 07:11:00,
2013-08-27 00:21:00,66.3,58.2,29.76,SSW,192,0.0,0.0,75,0.00,,---,0.00,VWS V14.01,2013-08-27 07:21:00,
2013-08-27 00:31:00,66.1,58.0,29.75,SSW,192,0.0,0.0,75,0.00,,---,0.00,VWS V14.01,2013-08-27 07:31:00,
2013-08-27 00:36:00,66.0,57.9,29.75,SSW,192,0.0,0.0,75,0.00,,---,0.00,VWS V14.01,2013-08-27 07:36:00,
2013-08-27 00:41:00,65.8,57.7,29.75,SSW,192,0.0,0.0,75,0.00,,---,0.00,VWS V14.01,2013-08-27 07:41:00,
2013-08-27 00:46:00,65.6,57.5,29.75,SSW,192,0.0,0.0,75,0.00,,---,0.00,VWS V14.01,2013-08-27 07:46:00,
2013-08-27 00:51:00,65.6,57.8,29.75,SSW,192,0.0,0.0,76,0.00,,---,0.00,VWS V14.01,2013-08-27 07:51:00,
2013-08-27 00:56:00,65.5,57.7,29.75,SSW,192,0.0,0.0,76,0.00,,---,0.00,VWS V14.01,2013-08-27 07:56:00,
2013-08-27 01:01:00,65.5,57.7,29.75,SSW,192,0.0,0.0,76,0.00,,---,0.00,VWS V14.01,2013-08-27 08:01:00,
2013-08-27 01:11:00,65.3,57.5,29.75,SSW,192,0.0,0.0,76,0.00,,---,0.00,VWS V14.01,2013-08-27 08:11:00,
2013-08-27 01:21:00,65.0,57.3,29.74,SSW,192,0.0,0.0,76,0.00,,---,0.00,VWS V14.01,2013-08-27 08:21:00,
2013-08-27 01:26:00,64.8,57.1,29.74,SSW,192,0.0,0.0,76,0.00,,---,0.00,VWS V14.01,2013-08-27 08:26:00,
2013-08-27 01:31:00,64.8,57.1,29.74,SSW,192,0.0,0.0,76,0.00,,---,0.00,VWS V14.01,2013-08-27 08:31:00,
2013-08-27 01:41:00,64.5,56.8,29.74,SSW,192,0.0,0.0,76,0.00,,---,0.00,VWS V14.01,2013-08-27 08:41:00,
2013-08-27 01:46:00,64.3,56.6,29.73,SSW,192,0.0,0.0,76,0.00,,---,0.00,VWS V14.01,2013-08-27 08:46:00,
2013-08-27 01:56:00,64.2,56.5,29.73,SSW,192,0.0,0.0,76,0.00,,---,0.00,VWS V14.01,2013-08-27 08:56:00,
2013-08-27 02:01:00,64.2,56.1,29.72,SSW,192,0.0,0.0,75,0.00,,---,0.00,VWS V14.01,2013-08-27 09:01:00,
2013-08-27 02:11:00,64.2,56.1,29.72,SSW,192,0.0,0.0,75,0.00,,---,0.00,VWS V14.01,2013-08-27 09:11:00,
2013-08-27 02:16:00,64.0,55.9,29.72,SSW,192,0.0,0.0,75,0.00,,---,0.00,VWS V14.01,2013-08-27 09:16:00,
2013-08-27 02:26:00,64.0,55.9,29.72,SSW,192,0.0,0.0,75,0.00,,---,0.00,VWS V14.01,2013-08-27 09:26:00,
2013-08-27 02:31:00,63.9,55.8,29.72,SSW,192,0.0,0.0,75,0.00,,---,0.00,VWS V14.01,2013-08-27 09:31:00,
2013-08-27 02:36:00,63.9,55.8,29.72,SSW,192,0.0,0.0,75,0.00,,---,0.00,VWS V14.01,2013-08-27 09:36:00,
2013-08-27 02:41:00,64.0,55.9,29.72,SSW,192,0.0,0.0,75,0.00,,---,0.00,VWS V14.01,2013-08-27 09:41:00,
2013-08-27 02:46:00,63.9,55.8,29.72,SSW,192,0.0,0.0,75,0.00,,---,0.00,VWS V14.01,2013-08-27 09:46:00,
2013-08-27 02:51:00,63.9,55.5,29.72,SSW,192,0.0,0.0,74,0.00,,---,0.00,VWS V14.01,2013-08-27 09:51:00,
2013-08-27 02:56:00,63.7,55.3,29.72,SSW,192,0.0,0.0,74,0.00,,---,0.00,VWS V14.01,2013-08-27 09:56:00,
2013-08-27 03:01:00,63.7,54.9,29.72,SSW,192,0.0,0.0,73,0.00,,---,0.00,VWS V14.01,2013-08-27 10:01:00,
2013-08-27 03:11:00,64.0,55.2,29.72,SSW,192,0.0,0.0,73,0.00,,---,0.00,VWS V14.01,2013-08-27 10:11:00,
2013-08-27 03:16:00,64.3,55.5,29.72,SSW,192,0.0,0.0,73,0.00,,---,0.00,VWS V14.01,2013-08-27 10:16:00,
2013-08-27 03:26:00,64.7,55.9,29.72,SSW,192,0.0,0.0,73,0.00,,---,0.00,VWS V14.01,2013-08-27 10:26:00,
2013-08-27 03:31:00,64.7,55.5,29.71,SSW,192,0.0,0.0,72,0.00,,---,0.00,VWS V14.01,2013-08-27 10:31:00,
2013-08-27 03:36:00,64.8,55.6,29.71,SSW,192,0.0,0.0,72,0.00,,---,0.00,VWS V14.01,2013-08-27 10:36:00,
2013-08-27 03:46:00,65.2,56.0,29.71,SSW,192,0.0,0.0,72,0.00,,---,0.00,VWS V14.01,2013-08-27 10:46:00,
2013-08-27 03:51:00,65.3,56.0,29.71,SSW,192,0.0,0.0,72,0.00,,---,0.00,VWS V14.01,2013-08-27 10:51:00,
2013-08-27 03:56:00,65.5,56.2,29.71,SSW,192,0.0,0.0,72,0.00,,---,0.00,VWS V14.01,2013-08-27 10:56:00,
2013-08-27 04:01:00,65.6,56.3,29.71,SSW,192,0.0,0.0,72,0.00,,---,0.00,VWS V14.01,2013-08-27 11:01:00,
2013-08-27 04:11:00,66.3,57.0,29.71,SSW,192,0.0,0.0,72,0.00,,---,0.00,VWS V14.01,2013-08-27 11:11:00,
2013-08-27 04:21:00,66.8,57.5,29.70,SSW,192,0.0,0.0,72,0.00,,---,0.00,VWS V14.01,2013-08-27 11:21:00,
2013-08-27 04:26:00,67.1,57.8,29.70,SSW,192,0.0,0.0,72,0.00,,---,0.00,VWS V14.01,2013-08-27 11:26:00,
2013-08-27 04:31:00,67.3,58.0,29.70,SSW,192,0.0,0.0,72,0.00,,---,0.00,VWS V14.01,2013-08-27 11:31:00,
2013-08-27 04:41:00,67.8,58.5,29.70,SSW,192,0.0,0.0,72,0.00,,---,0.00,VWS V14.01,2013-08-27 11:41:00,
2013-08-27 04:46:00,67.9,58.2,29.69,SSW,192,0.0,0.0,71,0.00,,---,0.00,VWS V14.01,2013-08-27 11:46:00,
2013-08-27 04:51:00,68.1,58.3,29.69,SSW,192,0.0,0.0,71,0.00,,---,0.00,VWS V14.01,2013-08-27 11:51:00,
2013-08-27 04:56:00,68.1,58.3,29.69,SSW,192,0.0,0.0,71,0.00,,---,0.00,VWS V14.01,2013-08-27 11:56:00,
2013-08-27 05:06:00,68.4,58.2,29.70,SSW,192,0.0,0.0,70,0.00,,---,0.00,VWS V14.01,2013-08-27 12:06:00,
2013-08-27 05:16:00,68.4,57.8,29.69,SSW,192,0.0,0.0,69,0.00,,---,0.00,VWS V14.01,2013-08-27 12:16:00,
2013-08-27 05:21:00,68.4,57.4,29.69,SSW,192,0.0,0.0,68,0.00,,---,0.00,VWS V14.01,2013-08-27 12:21:00,
2013-08-27 05:26:00,68.4,57.4,29.69,SSW,192,0.0,0.0,68,0.00,,---,0.00,VWS V14.01,2013-08-27 12:26:00,
2013-08-27 05:36:00,68.6,57.6,29.69,SSW,192,0.0,0.0,68,0.00,,---,0.00,VWS V14.01,2013-08-27 12:36:00,
2013-08-27 05:41:00,68.6,57.6,29.69,SSW,192,0.0,0.0,68,0.00,,---,0.00,VWS V14.01,2013-08-27 12:41:00,
2013-08-27 05:46:00,68.6,57.6,29.70,SSW,192,0.0,0.0,68,0.00,,---,0.00,VWS V14.01,2013-08-27 12:46:00,
2013-08-27 05:51:00,68.6,57.6,29.70,SSW,192,0.0,0.0,68,0.00,,---,0.00,VWS V14.01,2013-08-27 12:51:00,
2013-08-27 05:56:00,68.6,58.0,29.70,SSW,192,0.0,0.0,69,0.00,,---,0.00,VWS V14.01,2013-08-27 12:56:00,
2013-08-27 06:01:00,68.6,58.0,29.70,SSW,192,0.0,0.0,69,0.00,,---,0.00,VWS V14.01,2013-08-27 13:01:00,
2013-08-27 06:11:00,68.4,57.4,29.70,SSW,192,0.0,0.0,68,0.00,,---,0.00,VWS V14.01,2013-08-27 13:11:00,
2013-08-27 06:16:00,68.3,57.3,29.70,SSW,192,0.0,0.0,68,0.00,,---,0.00,VWS V14.01,2013-08-27 13:16:00,
2013-08-27 06:26:00,68.1,57.2,29.70,SSW,192,0.0,0.0,68,0.00,,---,0.00,VWS V14.01,2013-08-27 13:26:00,
2013-08-27 06:31:00,68.3,57.8,29.71,SSW,192,0.0,0.0,69,0.00,,---,0.00,VWS V14.01,2013-08-27 13:31:00,
2013-08-27 06:41:00,68.3,58.2,29.71,SSW,192,0.0,0.0,70,0.00,,---,0.00,VWS V14.01,2013-08-27 13:41:00,
2013-08-27 06:46:00,68.3,58.2,29.71,SSW,192,0.0,0.0,70,0.00,,---,0.00,VWS V14.01,2013-08-27 13:46:00,
2013-08-27 06:51:00,68.4,58.6,29.71,SSW,192,0.0,0.0,71,0.00,,---,0.00,VWS V14.01,2013-08-27 13:51:00,
2013-08-27 06:56:00,68.4,58.6,29.71,SSW,192,0.0,0.0,71,0.00,,---,0.00,VWS V14.01,2013-08-27 13:56:00,
2013-08-27 07:01:00,68.6,59.2,29.71,SSW,192,0.0,0.0,72,0.00,,---,0.00,VWS V14.01,2013-08-27 14:01:00,
2013-08-27 07:11:00,68.8,59.4,29.71,SSW,192,0.0,0.0,72,0.00,,---,0.00,VWS V14.01,2013-08-27 14:11:00,
2013-08-27 07:16:00,68.9,59.5,29.72,SSW,192,0.0,0.0,72,0.00,,---,0.00,VWS V14.01,2013-08-27 14:16:00,
2013-08-27 07:21:00,68.9,58.7,29.72,SSW,192,0.0,0.0,70,0.00,,---,0.00,VWS V14.01,2013-08-27 14:21:00,
2013-08-27 07:31:00,69.4,58.8,29.72,SSW,192,0.0,0.0,69,0.00,,---,0.00,VWS V14.01,2013-08-27 14:31:00,
2013-08-27 07:36:00,69.9,59.7,29.72,SSW,192,0.0,0.0,70,0.00,,---,0.00,VWS V14.01,2013-08-27 14:36:00,
2013-08-27 07:46:00,70.4,59.3,29.72,SSW,192,0.0,0.0,68,0.00,,---,0.00,VWS V14.01,2013-08-27 14:46:00,
2013-08-27 07:51:00,70.9,59.8,29.72,SSW,192,0.0,0.0,68,0.00,,---,0.00,VWS V14.01,2013-08-27 14:51:00,
2013-08-27 08:01:00,72.0,59.6,29.72,SSW,192,0.0,0.0,65,0.00,,---,0.00,VWS V14.01,2013-08-27 15:01:00,
2013-08-27 08:06:00,72.7,59.8,29.72,SSW,192,0.0,0.0,64,0.00,,---,0.00,VWS V14.01,2013-08-27 15:06:00,
2013-08-27 08:11:00,73.2,60.3,29.72,SSW,192,0.0,0.0,64,0.00,,---,0.00,VWS V14.01,2013-08-27 15:11:00,
2013-08-27 08:21:00,74.2,60.4,29.73,SSW,192,0.0,0.0,62,0.00,,---,0.00,VWS V14.01,2013-08-27 15:21:00,
2013-08-27 08:26:00,74.6,60.3,29.73,SSW,192,0.0,0.0,61,0.00,,---,0.00,VWS V14.01,2013-08-27 15:26:00,
2013-08-27 08:36:00,76.5,60.2,29.73,SW,220,0.0,0.0,57,0.00,,---,0.00,VWS V14.01,2013-08-27 15:36:00,
2013-08-27 08:46:00,78.5,60.5,29.72,SW,220,0.0,0.0,54,0.00,,---,0.00,VWS V14.01,2013-08-27 15:46:00,
2013-08-27 08:51:00,79.6,61.5,29.72,SW,220,0.0,0.0,54,0.00,,---,0.00,VWS V14.01,2013-08-27 15:51:00,
2013-08-27 08:56:00,80.7,60.9,29.72,SW,220,0.0,0.0,51,0.00,,---,0.00,VWS V14.01,2013-08-27 15:56:00,
2013-08-27 09:06:00,82.8,60.5,29.72,SW,219,0.0,0.0,47,0.00,,---,0.00,VWS V14.01,2013-08-27 16:06:00,
2013-08-27 09:11:00,84.0,61.0,29.72,SW,219,0.0,0.0,46,0.00,,---,0.00,VWS V14.01,2013-08-27 16:11:00,
2013-08-27 09:21:00,85.7,62.6,29.72,SE,134,0.0,0.0,46,0.00,,---,0.00,VWS V14.01,2013-08-27 16:21:00,
2013-08-27 09:31:00,86.3,63.1,29.72,SE,137,0.0,0.0,46,0.00,,---,0.00,VWS V14.01,2013-08-27 16:31:00,
2013-08-27 09:36:00,86.7,63.5,29.72,SE,137,0.0,0.0,46,0.00,,---,0.00,VWS V14.01,2013-08-27 16:36:00,
2013-08-27 09:46:00,87.6,64.3,29.72,South,174,0.0,1.0,46,0.00,,---,0.00,VWS V14.01,2013-08-27 16:46:00,
2013-08-27 09:51:00,87.2,63.9,29.72,SW,226,0.0,0.0,46,0.00,,---,0.00,VWS V14.01,2013-08-27 16:51:00,
2013-08-27 10:01:00,87.6,65.5,29.72,SSW,196,0.0,0.0,48,0.00,,---,0.00,VWS V14.01,2013-08-27 17:01:00,
2013-08-27 10:06:00,87.8,65.7,29.72,SW,219,0.0,0.0,48,0.00,,---,0.00,VWS V14.01,2013-08-27 17:06:00,
2013-08-27 10:16:00,87.2,65.7,29.72,SW,223,0.0,5.0,49,0.00,,---,0.00,VWS V14.01,2013-08-27 17:16:00,
2013-08-27 10:26:00,87.4,65.9,29.72,South,172,0.0,5.0,49,0.00,,---,0.00,VWS V14.01,2013-08-27 17:26:00,
2013-08-27 10:31:00,87.2,65.1,29.72,SSW,196,0.0,5.0,48,0.00,,---,0.00,VWS V14.01,2013-08-27 17:31:00,
2013-08-27 10:36:00,87.2,65.1,29.72,WSW,240,0.0,3.0,48,0.00,,---,0.00,VWS V14.01,2013-08-27 17:36:00,
2013-08-27 10:41:00,87.8,64.5,29.72,SW,229,0.0,3.0,46,0.00,,---,0.00,VWS V14.01,2013-08-27 17:41:00,
2013-08-27 10:51:00,88.6,63.9,29.72,West,272,0.0,1.0,44,0.00,,---,0.00,VWS V14.01,2013-08-27 17:51:00,
2013-08-27 11:01:00,88.8,63.4,29.72,West,277,2.0,5.0,43,0.00,,---,0.00,VWS V14.01,2013-08-27 18:01:00,
2013-08-27 11:11:00,88.8,63.4,29.72,West,265,0.0,4.0,43,0.00,,---,0.00,VWS V14.01,2013-08-27 18:11:00,
2013-08-27 11:16:00,89.0,63.0,29.73,WSW,241,0.0,6.0,42,0.00,,---,0.00,VWS V14.01,2013-08-27 18:16:00,
2013-08-27 11:26:00,89.0,63.6,29.73,SSW,208,2.0,8.0,43,0.00,,---,0.00,VWS V14.01,2013-08-27 18:26:00,
2013-08-27 11:36:00,90.1,62.5,29.72,SSW,210,7.0,8.0,40,0.00,,---,0.00,VWS V14.01,2013-08-27 18:36:00,
2013-08-27 11:41:00,90.7,63.1,29.72,West,280,2.0,7.0,40,0.00,,---,0.00,VWS V14.01,2013-08-27 18:41:00,
2013-08-27 11:46:00,90.3,62.0,29.72,West,277,1.0,6.0,39,0.00,,---,0.00,VWS V14.01,2013-08-27 18:46:00,
2013-08-27 11:51:00,90.3,61.3,29.72,WSW,243,0.0,6.0,38,0.00,,---,0.00,VWS V14.01,2013-08-27 18:51:00,
2013-08-27 12:01:00,91.0,62.6,29.72,SW,229,0.0,3.0,39,0.00,,---,0.00,VWS V14.01,2013-08-27 19:01:00,
2013-08-27 12:11:00,90.5,60.7,29.72,WSW,246,0.0,7.0,37,0.00,,---,0.00,VWS V14.01,2013-08-27 19:11:00,
2013-08-27 12:21:00,90.7,61.6,29.72,SW,223,1.0,5.0,38,0.00,,---,0.00,VWS V14.01,2013-08-27 19:21:00,
2013-08-27 12:26:00,91.4,61.5,29.72,SW,236,0.0,6.0,37,0.00,,---,0.00,VWS V14.01,2013-08-27 19:26:00,
2013-08-27 12:31:00,92.1,61.3,29.72,West,270,0.0,7.0,36,0.00,,---,0.00,VWS V14.01,2013-08-27 19:31:00,
2013-08-27 12:36:00,92.3,63.0,29.72,SW,222,0.0,6.0,38,0.00,,---,0.00,VWS V14.01,2013-08-27 19:36:00,
2013-08-27 12:46:00,92.9,62.0,29.71,South,172,1.0,7.0,36,0.00,,---,0.00,VWS V14.01,2013-08-27 19:46:00,
2013-08-27 12:51:00,93.4,62.5,29.71,WSW,240,0.0,7.0,36,0.00,,---,0.00,VWS V14.01,2013-08-27 19:51:00,
2013-08-27 12:56:00,94.0,63.0,29.71,WNW,294,0.0,6.0,36,0.00,,---,0.00,VWS V14.01,2013-08-27 19:56:00,
2013-08-27 13:06:00,93.8,62.8,29.71,SSW,198,0.0,6.0,36,0.00,,---,0.00,VWS V14.01,2013-08-27 20:06:00,
2013-08-27 13:11:00,93.6,62.7,29.71,SW,216,1.0,8.0,36,0.00,,---,0.00,VWS V14.01,2013-08-27 20:11:00,
2013-08-27 13:16:00,93.4,64.0,29.71,SW,226,2.0,9.0,38,0.00,,---,0.00,VWS V14.01,2013-08-27 20:16:00,
2013-08-27 13:21:00,93.4,64.8,29.71,WSW,244,1.0,7.0,39,0.00,,---,0.00,VWS V14.01,2013-08-27 20:21:00,
2013-08-27 13:26:00,93.6,64.9,29.71,SSE,167,1.0,10.0,39,0.00,,---,0.00,VWS V14.01,2013-08-27 20:26:00,
2013-08-27 13:31:00,93.8,64.4,29.71,South,191,1.0,11.0,38,0.00,,---,0.00,VWS V14.01,2013-08-27 20:31:00,
2013-08-27 13:36:00,94.3,64.8,29.71,West,264,2.0,7.0,38,0.00,,---,0.00,VWS V14.01,2013-08-27 20:36:00,
2013-08-27 13:46:00,94.3,64.8,29.70,SW,234,1.0,9.0,38,0.00,,---,0.00,VWS V14.01,2013-08-27 20:46:00,
2013-08-27 13:56:00,94.0,64.6,29.70,SW,220,3.0,12.0,38,0.00,,---,0.00,VWS V14.01,2013-08-27 20:56:00,
2013-08-27 14:06:00,92.7,64.1,29.70,SW,230,0.0,10.0,39,0.00,,---,0.00,VWS V14.01,2013-08-27 21:06:00,
2013-08-27 14:11:00,92.7,64.1,29.70,WSW,254,8.0,12.0,39,0.00,,---,0.00,VWS V14.01,2013-08-27 21:11:00,
2013-08-27 14:16:00,93.2,63.8,29.70,SW,223,0.0,10.0,38,0.00,,---,0.00,VWS V14.01,2013-08-27 21:16:00,
2013-08-27 14:26:00,93.2,63.8,29.70,SW,230,0.0,10.0,38,0.00,,---,0.00,VWS V14.01,2013-08-27 21:26:00,
2013-08-27 14:36:00,92.9,63.6,29.70,WSW,243,17.0,17.0,38,0.00,,---,0.00,VWS V14.01,2013-08-27 21:36:00,
2013-08-27 14:41:00,92.5,63.2,29.70,WSW,247,0.0,17.0,38,0.00,,---,0.00,VWS V14.01,2013-08-27 21:41:00,
2013-08-27 14:46:00,91.6,63.2,29.70,WSW,250,3.0,7.0,39,0.00,,---,0.00,VWS V14.01,2013-08-27 21:46:00,
2013-08-27 14:51:00,90.7,62.4,29.70,SSW,203,0.0,6.0,39,0.00,,---,0.00,VWS V14.01,2013-08-27 21:51:00,
2013-08-27 15:01:00,89.7,61.5,29.69,SSW,206,0.0,11.0,39,0.00,,---,0.00,VWS V14.01,2013-08-27 22:01:00,
2013-08-27 15:06:00,89.3,61.1,29.69,West,271,2.0,6.0,39,0.00,,---,0.00,VWS V14.01,2013-08-27 22:06:00,
2013-08-27 15:11:00,88.8,61.4,29.69,WSW,237,0.0,7.0,40,0.00,,---,0.00,VWS V14.01,2013-08-27 22:11:00,
2013-08-27 15:16:00,90.3,60.5,29.69,SW,232,0.0,8.0,37,0.00,,---,0.00,VWS V14.01,2013-08-27 22:16:00,
2013-08-27 15:26:00,92.5,62.5,29.69,WSW,239,1.0,5.0,37,0.00,,---,0.00,VWS V14.01,2013-08-27 22:26:00,
2013-08-27 15:31:00,92.7,61.9,29.69,SSW,209,1.0,10.0,36,0.00,,---,0.00,VWS V14.01,2013-08-27 22:31:00,
2013-08-27 15:36:00,92.3,61.5,29.69,WSW,247,1.0,8.0,36,0.00,,---,0.00,VWS V14.01,2013-08-27 22:36:00,
2013-08-27 15:46:00,93.2,60.7,29.68,SW,224,6.0,6.0,34,0.00,,---,0.00,VWS V14.01,2013-08-27 22:46:00,
2013-08-27 15:51:00,92.9,60.4,29.68,SW,234,5.0,8.0,34,0.00,,---,0.00,VWS V14.01,2013-08-27 22:51:00,
2013-08-27 16:01:00,92.7,58.5,29.68,SW,223,0.0,8.0,32,0.00,,---,0.00,VWS V14.01,2013-08-27 23:01:00,
2013-08-27 16:06:00,92.7,58.5,29.68,WSW,246,6.0,8.0,32,0.00,,---,0.00,VWS V14.01,2013-08-27 23:06:00,
2013-08-27 16:11:00,92.5,59.2,29.68,SW,220,0.0,10.0,33,0.00,,---,0.00,VWS V14.01,2013-08-27 23:11:00,
2013-08-27 16:21:00,91.8,56.9,29.68,WSW,239,1.0,6.0,31,0.00,,---,0.00,VWS V14.01,2013-08-27 23:21:00,
2013-08-27 16:31:00,91.6,54.9,29.68,West,274,0.0,11.0,29,0.00,,---,0.00,VWS V14.01,2013-08-27 23:31:00,
2013-08-27 16:41:00,92.1,54.3,29.68,WSW,239,7.0,8.0,28,0.00,,---,0.00,VWS V14.01,2013-08-27 23:41:00,
2013-08-27 16:46:00,91.6,53.9,29.68,SW,224,0.0,11.0,28,0.00,,---,0.00,VWS V14.01,2013-08-27 23:46:00,
2013-08-27 16:56:00,91.4,54.7,29.68,SW,227,1.0,3.0,29,0.00,,---,0.00,VWS V14.01,2013-08-27 23:56:00,
2013-08-27 17:06:00,90.7,54.1,29.68,SW,226,1.0,8.0,29,0.00,,---,0.00,VWS V14.01,2013-08-28 00:06:00,
2013-08-27 17:11:00,90.1,54.5,29.68,SSW,202,0.0,6.0,30,0.00,,---,0.00,VWS V14.01,2013-08-28 00:11:00,
2013-08-27 17:16:00,90.3,57.3,29.68,South,172,0.0,8.0,33,0.00,,---,0.00,VWS V14.01,2013-08-28 00:16:00,
2013-08-27 17:21:00,89.7,56.8,29.68,South,184,0.0,7.0,33,0.00,,---,0.00,VWS V14.01,2013-08-28 00:21:00,
2013-08-27 17:31:00,88.2,57.9,29.68,WSW,241,0.0,2.0,36,0.00,,---,0.00,VWS V14.01,2013-08-28 00:31:00,
2013-08-27 17:36:00,88.4,58.1,29.68,South,172,0.0,5.0,36,0.00,,---,0.00,VWS V14.01,2013-08-28 00:36:00,
2013-08-27 17:41:00,88.4,58.1,29.68,SW,220,0.0,8.0,36,0.00,,---,0.00,VWS V14.01,2013-08-28 00:41:00,
2013-08-27 17:51:00,89.0,58.6,29.68,SW,217,0.0,1.0,36,0.00,,---,0.00,VWS V14.01,2013-08-28 00:51:00,
2013-08-27 17:56:00,89.3,60.4,29.68,SSW,210,0.0,0.0,38,0.00,,---,0.00,VWS V14.01,2013-08-28 00:56:00,
2013-08-27 18:01:00,89.5,61.3,29.68,WSW,246,0.0,2.0,39,0.00,,---,0.00,VWS V14.01,2013-08-28 01:01:00,
2013-08-27 18:11:00,88.2,61.5,29.68,West,277,0.0,4.0,41,0.00,,---,0.00,VWS V14.01,2013-08-28 01:11:00,
2013-08-27 18:21:00,86.7,62.2,29.68,SW,216,0.0,0.0,44,0.00,,---,0.00,VWS V14.01,2013-08-28 01:21:00,
2013-08-27 18:26:00,85.9,62.1,29.68,WSW,237,0.0,2.0,45,0.00,,---,0.00,VWS V14.01,2013-08-28 01:26:00,
2013-08-27 18:31:00,85.3,62.2,29.68,SW,219,0.0,0.0,46,0.00,,---,0.00,VWS V14.01,2013-08-28 01:31:00,
2013-08-27 18:36:00,84.5,62.1,29.68,SW,219,0.0,0.0,47,0.00,,---,0.00,VWS V14.01,2013-08-28 01:36:00,
2013-08-27 18:46:00,82.2,61.7,29.68,SW,219,0.0,0.0,50,0.00,,---,0.00,VWS V14.01,2013-08-28 01:46:00,
2013-08-27 18:51:00,81.2,61.4,29.68,SW,219,0.0,0.0,51,0.00,,---,0.00,VWS V14.01,2013-08-28 01:51:00,
2013-08-27 18:56:00,80.5,61.3,29.68,SW,219,0.0,0.0,52,0.00,,---,0.00,VWS V14.01,2013-08-28 01:56:00,
2013-08-27 19:06:00,79.8,61.2,29.68,SW,219,0.0,0.0,53,0.00,,---,0.00,VWS V14.01,2013-08-28 02:06:00,
2013-08-27 19:11:00,79.0,61.0,29.68,SW,219,0.0,0.0,54,0.00,,---,0.00,VWS V14.01,2013-08-28 02:11:00,
2013-08-27 19:16:00,78.6,61.1,29.68,SSW,212,0.0,0.0,55,0.00,,---,0.00,VWS V14.01,2013-08-28 02:16:00,
2013-08-27 19:26:00,77.7,60.8,29.68,SSW,209,0.0,0.0,56,0.00,,---,0.00,VWS V14.01,2013-08-28 02:26:00,
2013-08-27 19:31:00,77.4,61.0,29.68,SSW,209,0.0,0.0,57,0.00,,---,0.00,VWS V14.01,2013-08-28 02:31:00,
2013-08-27 19:41:00,76.1,60.8,29.68,SSW,209,0.0,0.0,59,0.00,,---,0.00,VWS V14.01,2013-08-28 02:41:00,
2013-08-27 19:51:00,75.4,60.6,29.69,SSW,209,0.0,0.0,60,0.00,,---,0.00,VWS V14.01,2013-08-28 02:51:00,
2013-08-27 19:56:00,75.1,60.3,29.69,SSW,209,0.0,0.0,60,0.00,,---,0.00,VWS V14.01,2013-08-28 02:56:00,
2013-08-27 20:01:00,74.9,60.6,29.69,SSW,209,0.0,0.0,61,0.00,,---,0.00,VWS V14.01,2013-08-28 03:01:00,
2013-08-27 20:11:00,74.6,60.7,29.69,SSW,209,0.0,0.0,62,0.00,,---,0.00,VWS V14.01,2013-08-28 03:11:00,
2013-08-27 20:16:00,74.4,60.5,29.69,SSW,209,0.0,0.0,62,0.00,,---,0.00,VWS V14.01,2013-08-28 03:16:00,
2013-08-27 20:21:00,74.2,60.8,29.69,SSW,209,0.0,0.0,63,0.00,,---,0.00,VWS V14.01,2013-08-28 03:21:00,
2013-08-27 20:26:00,74.0,61.1,29.69,SSW,209,0.0,0.0,64,0.00,,---,0.00,VWS V14.01,2013-08-28 03:26:00,
2013-08-27 20:31:00,73.9,61.0,29.70,SSW,209,0.0,0.0,64,0.00,,---,0.00,VWS V14.01,2013-08-28 03:31:00,
2013-08-27 20:36:00,73.7,60.8,29.70,SSW,209,0.0,0.0,64,0.00,,---,0.00,VWS V14.01,2013-08-28 03:36:00,
2013-08-27 20:41:00,73.3,60.4,29.70,SSW,209,0.0,0.0,64,0.00,,---,0.00,VWS V14.01,2013-08-28 03:41:00,
2013-08-27 20:46:00,73.2,60.3,29.70,SSW,209,0.0,0.0,64,0.00,,---,0.00,VWS V14.01,2013-08-28 03:46:00,
2013-08-27 20:51:00,73.0,60.5,29.70,SSW,209,0.0,0.0,65,0.00,,---,0.00,VWS V14.01,2013-08-28 03:51:00,
2013-08-27 20:56:00,72.7,60.7,29.70,SSW,209,0.0,0.0,66,0.00,,---,0.00,VWS V14.01,2013-08-28 03:56:00,
2013-08-27 21:01:00,72.3,60.3,29.71,SSW,209,0.0,0.0,66,0.00,,---,0.00,VWS V14.01,2013-08-28 04:01:00,
2013-08-27 21:06:00,72.1,60.5,29.71,SSW,209,0.0,0.0,67,0.00,,---,0.00,VWS V14.01,2013-08-28 04:06:00,
2013-08-27 21:11:00,71.8,60.3,29.71,SSW,209,0.0,0.0,67,0.00,,---,0.00,VWS V14.01,2013-08-28 04:11:00,
2013-08-27 21:16:00,71.6,60.5,29.71,SSW,209,0.0,0.0,68,0.00,,---,0.00,VWS V14.01,2013-08-28 04:16:00,
2013-08-27 21:21:00,71.3,60.2,29.71,SSW,209,0.0,0.0,68,0.00,,---,0.00,VWS V14.01,2013-08-28 04:21:00,
2013-08-27 21:26:00,71.1,60.0,29.71,SSW,209,0.0,0.0,68,0.00,,---,0.00,VWS V14.01,2013-08-28 04:26:00,
2013-08-27 21:31:00,70.9,59.8,29.71,SSW,209,0.0,0.0,68,0.00,,---,0.00,VWS V14.01,2013-08-28 04:31:00,
2013-08-27 21:36:00,70.9,60.2,29.71,SSW,209,0.0,0.0,69,0.00,,---,0.00,VWS V14.01,2013-08-28 04:36:00,
2013-08-27 21:41:00,70.8,60.1,29.71,SSW,209,0.0,0.0,69,0.00,,---,0.00,VWS V14.01,2013-08-28 04:41:00,
2013-08-27 21:46:00,70.4,59.8,29.72,SSW,209,0.0,0.0,69,0.00,,---,0.00,VWS V14.01,2013-08-28 04:46:00,
2013-08-27 21:51:00,70.3,60.1,29.72,SSW,209,0.0,0.0,70,0.00,,---,0.00,VWS V14.01,2013-08-28 04:51:00,
2013-08-27 21:56:00,70.1,59.9,29.72,SSW,209,0.0,0.0,70,0.00,,---,0.00,VWS V14.01,2013-08-28 04:56:00,
2013-08-27 22:06:00,69.9,60.1,29.72,SSW,209,0.0,0.0,71,0.00,,---,0.00,VWS V14.01,2013-08-28 05:06:00,
2013-08-27 22:16:00,69.6,59.8,29.72,SSW,209,0.0,0.0,71,0.00,,---,0.00,VWS V14.01,2013-08-28 05:16:00,
2013-08-27 22:21:00,69.4,60.0,29.72,SSW,209,0.0,0.0,72,0.00,,---,0.00,VWS V14.01,2013-08-28 05:21:00,
2013-08-27 22:26:00,69.3,59.9,29.72,SSW,209,0.0,0.0,72,0.00,,---,0.00,VWS V14.01,2013-08-28 05:26:00,
2013-08-27 22:36:00,69.1,60.1,29.72,SSW,209,0.0,0.0,73,0.00,,---,0.00,VWS V14.01,2013-08-28 05:36:00,
2013-08-27 22:41:00,68.9,59.9,29.72,SSW,209,0.0,0.0,73,0.00,,---,0.00,VWS V14.01,2013-08-28 05:41:00,
2013-08-27 22:46:00,68.9,59.9,29.72,SSW,209,0.0,0.0,73,0.00,,---,0.00,VWS V14.01,2013-08-28 05:46:00,
2013-08-27 22:51:00,68.9,59.9,29.72,SSW,209,0.0,0.0,73,0.00,,---,0.00,VWS V14.01,2013-08-28 05:51:00,
2013-08-27 23:01:00,68.8,60.2,29.72,SSW,209,0.0,0.0,74,0.00,,---,0.00,VWS V14.01,2013-08-28 06:01:00,
2013-08-27 23:06:00,68.8,60.2,29.72,SSW,209,0.0,0.0,74,0.00,,---,0.00,VWS V14.01,2013-08-28 06:06:00,
2013-08-27 23:11:00,68.8,60.6,29.72,SSW,209,0.0,0.0,75,0.00,,---,0.00,VWS V14.01,2013-08-28 06:11:00,
2013-08-27 23:16:00,68.8,60.6,29.72,SSW,209,0.0,0.0,75,0.00,,---,0.00,VWS V14.01,2013-08-28 06:16:00,
2013-08-27 23:21:00,68.8,60.6,29.72,SSW,209,0.0,0.0,75,0.00,,---,0.00,VWS V14.01,2013-08-28 06:21:00,
2013-08-27 23:26:00,68.6,60.4,29.72,SSW,209,0.0,0.0,75,0.00,,---,0.00,VWS V14.01,2013-08-28 06:26:00,
2013-08-27 23:31:00,68.6,60.4,29.71,SSW,209,0.0,0.0,75,0.00,,---,0.00,VWS V14.01,2013-08-28 06:31:00,
2013-08-27 23:41:00,68.8,60.9,29.71,SSW,209,0.0,0.0,76,0.00,,---,0.00,VWS V14.01,2013-08-28 06:41:00,
2013-08-27 23:46:00,68.6,60.7,29.71,SSW,209,0.0,0.0,76,0.00,,---,0.00,VWS V14.01,2013-08-28 06:46:00,
2013-08-27 23:51:00,68.6,60.7,29.71,SSW,209,0.0,0.0,76,0.00,,---,0.00,VWS V14.01,2013-08-28 06:51:00,